CHH7339 ZJSY-ZUCK

Flight info

Callsign CHH7339
Flight time 2h 38m
Altitude 36100
Route PORAP W222 NUMKU W223 AGTEL/K0880S1070 W71 LH/K0876S1100 R339 BHY W159 IVPUB/K0870S1070 W120 ENKUS DCT JW W2 PA/K0865S1100 W2 SJG B330 ELKAL W179 SUMUN W3 AGTIS/K0859S1130 W3 ASIPO W678 SEGDA
Aircraft B738/M-SDE2E3FGHIRWXY/LB1

Departure

Time 2026-04-25 04:41
Airport Sanya Phoenix International Airport (ZJSY)

Arrival

Time 2026-04-25 07:20
Airport Chongqing Jiangbei International Airport (ZUCK)
Time Latitude Longitude Altitude Speed Heading
2026-04-25 03:56 18.30836 109.40844 108 ft 0 kts 352°
2026-04-25 04:28 18.30835 109.40844 107 ft 0 kts 352°
2026-04-25 04:28 18.30822 109.40846 107 ft 2 kts 352°
2026-04-25 04:29 18.30807 109.40848 106 ft 2 kts 352°
2026-04-25 04:29 18.30792 109.40851 105 ft 2 kts 352°
2026-04-25 04:29 18.30777 109.40853 105 ft 2 kts 353°
2026-04-25 04:29 18.30762 109.40852 104 ft 2 kts 20°
2026-04-25 04:30 18.30749 109.40844 104 ft 2 kts 40°
2026-04-25 04:30 18.30739 109.40832 104 ft 2 kts 61°
2026-04-25 04:30 18.30734 109.40819 104 ft 0 kts 79°
2026-04-25 04:30 18.30733 109.40812 104 ft 1 kts 82°
2026-04-25 04:31 18.30733 109.40811 104 ft 0 kts 82°
2026-04-25 04:33 18.30733 109.40813 104 ft 1 kts 82°
2026-04-25 04:33 18.30736 109.40833 104 ft 4 kts 81°
2026-04-25 04:33 18.30742 109.40877 103 ft 8 kts 82°
2026-04-25 04:33 18.30751 109.40951 102 ft 12 kts 82°
2026-04-25 04:34 18.30764 109.41049 102 ft 14 kts 82°
2026-04-25 04:34 18.30777 109.41148 104 ft 11 kts 82°
2026-04-25 04:34 18.30778 109.41213 108 ft 7 kts 107°
2026-04-25 04:34 18.30742 109.41254 110 ft 9 kts 159°
2026-04-25 04:35 18.30661 109.41270 107 ft 15 kts 172°
2026-04-25 04:35 18.30543 109.41286 103 ft 17 kts 172°
2026-04-25 04:35 18.30486 109.41367 101 ft 14 kts 81°
2026-04-25 04:35 18.30498 109.41465 102 ft 14 kts 82°
2026-04-25 04:36 18.30513 109.41579 103 ft 17 kts 82°
2026-04-25 04:36 18.30531 109.41719 105 ft 20 kts 82°
2026-04-25 04:36 18.30550 109.41869 108 ft 20 kts 82°
2026-04-25 04:36 18.30568 109.42004 107 ft 17 kts 82°
2026-04-25 04:37 18.30585 109.42136 106 ft 20 kts 81°
2026-04-25 04:37 18.30607 109.42302 104 ft 22 kts 81°
2026-04-25 04:37 18.30621 109.42409 103 ft 21 kts 83°
2026-04-25 04:37 18.30646 109.42598 101 ft 17 kts 82°
2026-04-25 04:38 18.30655 109.42692 101 ft 10 kts 91°
2026-04-25 04:38 18.30631 109.42767 99 ft 12 kts 131°
2026-04-25 04:38 18.30599 109.42790 98 ft 2 kts 161°
2026-04-25 04:38 18.30590 109.42793 98 ft 1 kts 166°
2026-04-25 04:39 18.30578 109.42796 98 ft 1 kts 167°
2026-04-25 04:39 18.30565 109.42799 97 ft 2 kts 167°
2026-04-25 04:39 18.30554 109.42801 97 ft 1 kts 171°
2026-04-25 04:39 18.30538 109.42804 97 ft 4 kts 171°
2026-04-25 04:40 18.30502 109.42790 96 ft 7 kts 234°
2026-04-25 04:40 18.30493 109.42754 96 ft 0 kts 260°
2026-04-25 04:40 18.30481 109.42673 96 ft 40 kts 262°
2026-04-25 04:40 18.30410 109.42127 101 ft 108 kts 261°
2026-04-25 04:41 18.30279 109.41122 93 ft 166 kts 261°
2026-04-25 04:41 18.30128 109.39814 466 ft 183 kts 262°
2026-04-25 04:41 18.29341 109.37554 1626 ft 192 kts 241°
2026-04-25 04:42 18.28774 109.36307 2240 ft 193 kts 248°
2026-04-25 04:42 18.28272 109.35009 2882 ft 192 kts 249°
2026-04-25 04:42 18.27748 109.33678 3387 ft 201 kts 247°
2026-04-25 04:42 18.27067 109.32364 3885 ft 210 kts 230°
2026-04-25 04:43 18.25867 109.31371 3890 ft 231 kts 201°
2026-04-25 04:43 18.24319 109.31097 3870 ft 226 kts 175°
2026-04-25 04:43 18.22761 109.31426 3877 ft 226 kts 158°
2026-04-25 04:43 18.21453 109.32275 3871 ft 222 kts 129°
2026-04-25 04:44 18.20715 109.33682 3876 ft 219 kts 104°
2026-04-25 04:44 18.20508 109.35266 3868 ft 217 kts 88°
2026-04-25 04:44 18.20645 109.36843 3875 ft 217 kts 80°
2026-04-25 04:44 18.20880 109.38411 3873 ft 216 kts 80°
2026-04-25 04:45 18.21096 109.39985 3875 ft 217 kts 81°
2026-04-25 04:45 18.21290 109.41554 3876 ft 216 kts 81°
2026-04-25 04:45 18.21484 109.43131 3872 ft 218 kts 81°
2026-04-25 04:45 18.21679 109.44701 3871 ft 217 kts 81°
2026-04-25 04:46 18.21924 109.46281 3872 ft 217 kts 74°
2026-04-25 04:46 18.22610 109.47681 3921 ft 228 kts 45°
2026-04-25 04:46 18.23993 109.48646 4349 ft 244 kts 26°
2026-04-25 04:46 18.25572 109.49403 4994 ft 254 kts 25°
2026-04-25 04:47 18.27234 109.50218 5588 ft 266 kts 26°
2026-04-25 04:47 18.28927 109.51082 6298 ft 273 kts 26°
2026-04-25 04:47 18.30635 109.51965 7072 ft 277 kts 26°
2026-04-25 04:47 18.32392 109.52874 7862 ft 280 kts 26°
2026-04-25 04:48 18.34131 109.53769 8631 ft 282 kts 26°
2026-04-25 04:48 18.35912 109.54680 9382 ft 286 kts 25°
2026-04-25 04:48 18.37720 109.55604 10100 ft 290 kts 25°
2026-04-25 04:48 18.39558 109.56541 10629 ft 301 kts 25°
2026-04-25 04:49 18.41507 109.57535 11096 ft 315 kts 25°
2026-04-25 04:49 18.43541 109.58575 11546 ft 329 kts 25°
2026-04-25 04:49 18.45633 109.59646 11907 ft 344 kts 25°
2026-04-25 04:49 18.47862 109.60787 12262 ft 359 kts 25°
2026-04-25 04:50 18.50165 109.61957 12597 ft 374 kts 25°
2026-04-25 04:50 18.52594 109.63143 12891 ft 389 kts 24°
2026-04-25 04:50 18.55101 109.64337 13327 ft 399 kts 24°
2026-04-25 04:50 18.57664 109.65546 13917 ft 404 kts 24°
2026-04-25 04:51 18.60237 109.66762 14500 ft 409 kts 24°
2026-04-25 04:51 18.62856 109.68006 15190 ft 412 kts 24°
2026-04-25 04:51 18.65508 109.69273 15804 ft 416 kts 24°
2026-04-25 04:51 18.68172 109.70547 16433 ft 420 kts 24°
2026-04-25 04:52 18.70832 109.71822 17058 ft 423 kts 23°
2026-04-25 04:52 18.73523 109.73113 17639 ft 427 kts 23°
2026-04-25 04:52 18.76268 109.74431 18142 ft 433 kts 23°
2026-04-25 04:52 18.79037 109.75759 18644 ft 438 kts 23°
2026-04-25 04:53 18.81850 109.77110 19182 ft 443 kts 22°
2026-04-25 04:53 18.84684 109.78470 19657 ft 448 kts 22°
2026-04-25 04:53 18.87522 109.79833 20113 ft 454 kts 22°
2026-04-25 04:53 18.90445 109.81235 20616 ft 458 kts 22°
2026-04-25 04:54 18.93373 109.82642 21065 ft 463 kts 22°
2026-04-25 04:54 18.96308 109.84051 21519 ft 468 kts 21°
2026-04-25 04:54 18.99317 109.85497 21968 ft 473 kts 21°
2026-04-25 04:54 19.02328 109.86945 22456 ft 476 kts 21°
2026-04-25 04:55 19.05383 109.88415 22944 ft 480 kts 21°
2026-04-25 04:55 19.08445 109.89890 23495 ft 481 kts 21°
2026-04-25 04:55 19.11479 109.91352 23929 ft 485 kts 21°
2026-04-25 04:55 19.14577 109.92846 24457 ft 486 kts 21°
2026-04-25 04:56 19.17701 109.94353 24883 ft 490 kts 20°
2026-04-25 04:56 19.20799 109.95848 25288 ft 493 kts 20°
2026-04-25 04:56 19.23941 109.97366 25790 ft 494 kts 20°
2026-04-25 04:56 19.27094 109.98882 26269 ft 495 kts 20°
2026-04-25 04:57 19.30242 110.00364 26962 ft 490 kts 19°
2026-04-25 04:57 19.33390 110.01832 27626 ft 487 kts 19°
2026-04-25 04:57 19.36454 110.03278 28218 ft 485 kts 19°
2026-04-25 04:57 19.39565 110.04765 28733 ft 484 kts 19°
2026-04-25 04:58 19.42629 110.06239 29186 ft 485 kts 19°
2026-04-25 04:58 19.45744 110.07744 29663 ft 485 kts 19°
2026-04-25 04:58 19.48822 110.09234 30154 ft 484 kts 18°
2026-04-25 04:58 19.51858 110.10704 30593 ft 484 kts 18°
2026-04-25 04:59 19.54954 110.12204 31083 ft 482 kts 18°
2026-04-25 04:59 19.58031 110.13695 31562 ft 481 kts 18°
2026-04-25 04:59 19.61064 110.15165 32073 ft 478 kts 17°
2026-04-25 04:59 19.64115 110.16644 32540 ft 477 kts 17°
2026-04-25 05:00 19.67091 110.18087 33022 ft 475 kts 17°
2026-04-25 05:00 19.70145 110.19567 33458 ft 475 kts 17°
2026-04-25 05:00 19.73138 110.21016 33825 ft 476 kts 17°
2026-04-25 05:00 19.76163 110.22480 34192 ft 476 kts 17°
2026-04-25 05:01 19.79237 110.23968 34508 ft 478 kts 17°
2026-04-25 05:01 19.82262 110.25433 34892 ft 478 kts 17°
2026-04-25 05:01 19.85344 110.26927 35104 ft 480 kts 17°
2026-04-25 05:02 19.91516 110.29923 35102 ft 476 kts 17°
2026-04-25 05:02 19.97627 110.32895 35105 ft 475 kts 17°
2026-04-25 05:03 20.03752 110.35805 35103 ft 474 kts 14°
2026-04-25 05:03 20.10016 110.37793 35102 ft 462 kts
2026-04-25 05:04 20.16371 110.38349 35103 ft 445 kts 349°
2026-04-25 05:04 20.22436 110.37475 35098 ft 433 kts 338°
2026-04-25 05:05 20.28130 110.35416 35095 ft 425 kts 332°
2026-04-25 05:05 20.33753 110.33337 35099 ft 428 kts 335°
2026-04-25 05:06 20.39581 110.31676 35105 ft 433 kts 339°
2026-04-25 05:06 20.45472 110.30317 35114 ft 433 kts 340°
2026-04-25 05:07 20.51556 110.29488 35122 ft 442 kts 349°
2026-04-25 05:07 20.57866 110.29628 35120 ft 451 kts 354°
2026-04-25 05:08 20.64185 110.30094 35118 ft 451 kts 355°
2026-04-25 05:08 20.70516 110.30589 35110 ft 451 kts 355°
2026-04-25 05:09 20.76782 110.31051 35104 ft 448 kts 355°
2026-04-25 05:09 20.83104 110.31485 35100 ft 451 kts 354°
2026-04-25 05:10 20.89365 110.31905 35100 ft 449 kts 354°
2026-04-25 05:10 20.95660 110.32323 35099 ft 448 kts 354°
2026-04-25 05:11 21.01871 110.32670 35092 ft 444 kts 351°
2026-04-25 05:11 21.07974 110.31984 35097 ft 431 kts 338°
2026-04-25 05:12 21.13594 110.29929 35108 ft 414 kts 326°
2026-04-25 05:12 21.16115 110.28438 35096 ft 407 kts 320°
2026-04-25 05:12 21.20451 110.24652 35092 ft 398 kts 308°
2026-04-25 05:13 21.23738 110.19943 35098 ft 389 kts 296°
2026-04-25 05:13 21.25793 110.14593 35094 ft 386 kts 284°
2026-04-25 05:14 21.27067 110.08933 35094 ft 388 kts 284°
2026-04-25 05:15 21.30020 110.00788 35088 ft 389 kts 293°
2026-04-25 05:15 21.32503 109.95599 35091 ft 390 kts 295°
2026-04-25 05:16 21.35089 109.90435 35090 ft 389 kts 296°
2026-04-25 05:16 21.37687 109.85270 35095 ft 390 kts 295°
2026-04-25 05:17 21.40257 109.80146 35092 ft 390 kts 295°
2026-04-25 05:17 21.42831 109.75005 35095 ft 390 kts 295°
2026-04-25 05:18 21.45404 109.69860 35094 ft 390 kts 295°
2026-04-25 05:18 21.47977 109.64700 35090 ft 390 kts 296°
2026-04-25 05:19 21.50530 109.59576 35098 ft 389 kts 296°
2026-04-25 05:19 21.53101 109.54411 35093 ft 391 kts 296°
2026-04-25 05:20 21.55957 109.49412 35092 ft 394 kts 305°
2026-04-25 05:20 21.60104 109.45469 35091 ft 406 kts 321°
2026-04-25 05:21 21.65244 109.42667 35092 ft 420 kts 333°
2026-04-25 05:21 21.71070 109.41299 35095 ft 431 kts 343°
2026-04-25 05:22 21.77091 109.40561 35096 ft 433 kts 346°
2026-04-25 05:22 21.83086 109.39901 35096 ft 431 kts 345°
2026-04-25 05:23 21.89135 109.39188 35093 ft 431 kts 345°
2026-04-25 05:23 21.95140 109.38443 35103 ft 431 kts 344°
2026-04-25 05:24 22.01140 109.37675 35094 ft 432 kts 344°
2026-04-25 05:24 22.07117 109.36906 35094 ft 429 kts 344°
2026-04-25 05:25 22.13150 109.36120 35096 ft 430 kts 344°
2026-04-25 05:25 22.19124 109.35344 35108 ft 431 kts 344°
2026-04-25 05:26 22.25169 109.34628 35109 ft 434 kts 347°
2026-04-25 05:26 22.31345 109.34754 35107 ft 449 kts 357°
2026-04-25 05:27 22.37552 109.35788 35118 ft 455 kts
2026-04-25 05:27 22.43869 109.37092 35122 ft 455 kts
2026-04-25 05:28 22.50131 109.38402 35133 ft 456 kts
2026-04-25 05:28 22.56432 109.39689 35127 ft 453 kts
2026-04-25 05:29 22.62686 109.40943 35123 ft 454 kts
2026-04-25 05:29 22.68930 109.42180 35123 ft 456 kts
2026-04-25 05:30 22.75225 109.43421 35110 ft 456 kts
2026-04-25 05:30 22.81501 109.44667 35109 ft 455 kts
2026-04-25 05:31 22.87771 109.45908 35109 ft 455 kts
2026-04-25 05:31 22.94045 109.47149 35108 ft 455 kts
2026-04-25 05:32 23.00354 109.48396 35101 ft 457 kts
2026-04-25 05:32 23.06613 109.49638 35108 ft 457 kts
2026-04-25 05:33 23.12928 109.50896 35118 ft 453 kts
2026-04-25 05:33 23.19213 109.52144 35126 ft 457 kts
2026-04-25 05:34 23.25503 109.53400 35134 ft 455 kts
2026-04-25 05:34 23.31816 109.54656 35130 ft 457 kts
2026-04-25 05:35 23.38104 109.55910 35129 ft 456 kts
2026-04-25 05:35 23.44443 109.57172 35116 ft 456 kts
2026-04-25 05:36 23.50717 109.58427 35119 ft 457 kts
2026-04-25 05:36 23.57063 109.59693 35117 ft 458 kts
2026-04-25 05:37 23.63391 109.60961 35128 ft 457 kts
2026-04-25 05:37 23.69695 109.62224 35124 ft 457 kts
2026-04-25 05:38 23.75997 109.63485 35131 ft 458 kts
2026-04-25 05:38 23.82332 109.64757 35131 ft 456 kts
2026-04-25 05:39 23.88713 109.66038 35128 ft 457 kts
2026-04-25 05:39 23.94995 109.67300 35126 ft 460 kts
2026-04-25 05:40 24.01364 109.68583 35118 ft 457 kts
2026-04-25 05:40 24.07672 109.69855 35127 ft 458 kts
2026-04-25 05:41 24.14044 109.71139 35125 ft 458 kts
2026-04-25 05:41 24.20340 109.72405 35119 ft 458 kts
2026-04-25 05:42 24.26675 109.73687 35122 ft 457 kts
2026-04-25 05:42 24.32981 109.74960 35119 ft 460 kts
2026-04-25 05:43 24.39311 109.76238 35121 ft 459 kts
2026-04-25 05:43 24.45639 109.77524 35121 ft 454 kts
2026-04-25 05:44 24.51911 109.78796 35126 ft 459 kts
2026-04-25 05:44 24.58208 109.80077 35129 ft 455 kts
2026-04-25 05:45 24.64517 109.81432 35140 ft 460 kts
2026-04-25 05:45 24.70695 109.83727 35154 ft 468 kts 18°
2026-04-25 05:46 24.76640 109.86997 35167 ft 474 kts 22°
2026-04-25 05:46 24.82414 109.90490 35165 ft 472 kts 22°
2026-04-25 05:47 24.88174 109.94002 35162 ft 473 kts 22°
2026-04-25 05:47 24.93998 109.97522 35158 ft 470 kts 22°
2026-04-25 05:48 24.99857 110.00800 35152 ft 465 kts 15°
2026-04-25 05:48 25.06082 110.02493 35157 ft 450 kts
2026-04-25 05:49 25.12330 110.03200 35198 ft 452 kts 358°
2026-04-25 05:49 25.15513 110.03477 35545 ft 452 kts 358°
2026-04-25 05:49 25.18698 110.03759 36018 ft 451 kts 358°
2026-04-25 05:49 25.21885 110.04054 36160 ft 453 kts 358°
2026-04-25 05:50 25.25011 110.04356 36161 ft 450 kts 358°
2026-04-25 05:50 25.31258 110.04976 36163 ft 444 kts 356°
2026-04-25 05:51 25.37348 110.04445 36168 ft 429 kts 338°
2026-04-25 05:51 25.42830 110.01839 36177 ft 416 kts 323°
2026-04-25 05:52 25.47368 109.97974 36189 ft 406 kts 311°
2026-04-25 05:52 25.51248 109.93381 36193 ft 404 kts 307°
2026-04-25 05:53 25.54983 109.88709 36193 ft 405 kts 307°
2026-04-25 05:53 25.58780 109.84019 36192 ft 402 kts 307°
2026-04-25 05:54 25.62565 109.79393 36188 ft 403 kts 308°
2026-04-25 05:54 25.68232 109.72507 36179 ft 402 kts 307°
2026-04-25 05:55 25.72017 109.67913 36168 ft 404 kts 307°
2026-04-25 05:55 25.75702 109.63223 36158 ft 399 kts 303°
2026-04-25 05:56 25.78389 109.57853 36160 ft 394 kts 289°
2026-04-25 05:56 25.80116 109.52123 36158 ft 392 kts 284°
2026-04-25 05:57 25.81629 109.46286 36158 ft 393 kts 284°
2026-04-25 05:57 25.83132 109.40443 36165 ft 390 kts 285°
2026-04-25 05:58 25.84661 109.34551 36170 ft 395 kts 284°
2026-04-25 05:58 25.86185 109.28714 36174 ft 391 kts 284°
2026-04-25 05:59 25.87712 109.22875 36179 ft 393 kts 284°
2026-04-25 05:59 25.89237 109.17037 36178 ft 391 kts 284°
2026-04-25 06:00 25.90762 109.11179 36178 ft 391 kts 284°
2026-04-25 06:00 25.92276 109.05357 36179 ft 393 kts 284°
2026-04-25 06:01 25.93822 108.99483 36182 ft 392 kts 285°
2026-04-25 06:01 25.95367 108.93694 36185 ft 389 kts 285°
2026-04-25 06:02 25.96918 108.87873 36191 ft 391 kts 285°
2026-04-25 06:02 25.98463 108.82053 36200 ft 393 kts 284°
2026-04-25 06:03 26.00003 108.76234 36205 ft 394 kts 284°
2026-04-25 06:03 26.01556 108.70364 36207 ft 394 kts 285°
2026-04-25 06:04 26.03123 108.64477 36204 ft 393 kts 285°
2026-04-25 06:04 26.04670 108.58652 36201 ft 394 kts 285°
2026-04-25 06:05 26.06222 108.52798 36199 ft 395 kts 285°
2026-04-25 06:05 26.07780 108.46912 36197 ft 394 kts 285°
2026-04-25 06:06 26.09369 108.41026 36210 ft 396 kts 287°
2026-04-25 06:06 26.11481 108.35293 36221 ft 397 kts 293°
2026-04-25 06:07 26.13911 108.29727 36221 ft 397 kts 294°
2026-04-25 06:07 26.16372 108.24171 36236 ft 398 kts 294°
2026-04-25 06:08 26.18807 108.18612 36232 ft 397 kts 294°
2026-04-25 06:08 26.21228 108.13039 36233 ft 400 kts 294°
2026-04-25 06:09 26.23640 108.07452 36230 ft 397 kts 294°
2026-04-25 06:09 26.26036 108.01887 36224 ft 397 kts 294°
2026-04-25 06:10 26.28432 107.96310 36221 ft 399 kts 294°
2026-04-25 06:10 26.30833 107.90718 36221 ft 399 kts 294°
2026-04-25 06:11 26.33238 107.85111 36222 ft 398 kts 295°
2026-04-25 06:11 26.35650 107.79476 36219 ft 400 kts 294°
2026-04-25 06:12 26.38046 107.73871 36217 ft 400 kts 295°
2026-04-25 06:12 26.40436 107.68276 36219 ft 398 kts 294°
2026-04-25 06:13 26.42835 107.62646 36221 ft 399 kts 294°
2026-04-25 06:14 26.46431 107.54203 36231 ft 400 kts 295°
2026-04-25 06:14 26.48833 107.48550 36244 ft 400 kts 294°
2026-04-25 06:15 26.51240 107.42873 36251 ft 401 kts 294°
2026-04-25 06:15 26.53625 107.37231 36252 ft 400 kts 294°
2026-04-25 06:16 26.56027 107.31543 36251 ft 402 kts 294°
2026-04-25 06:16 26.58418 107.25895 36245 ft 400 kts 294°
2026-04-25 06:17 26.60809 107.20245 36241 ft 402 kts 294°
2026-04-25 06:17 26.63228 107.14514 36241 ft 401 kts 294°
2026-04-25 06:18 26.65646 107.08809 36238 ft 402 kts 294°
2026-04-25 06:18 26.68048 107.03161 36235 ft 400 kts 294°
2026-04-25 06:19 26.70447 106.97509 36236 ft 402 kts 294°
2026-04-25 06:19 26.72869 106.91795 36245 ft 403 kts 295°
2026-04-25 06:20 26.75587 106.86249 36254 ft 405 kts 304°
2026-04-25 06:20 26.79678 106.81835 36265 ft 412 kts 322°
2026-04-25 06:21 26.84753 106.78687 36263 ft 416 kts 333°
2026-04-25 06:21 26.87546 106.77740 36276 ft 427 kts 343°
2026-04-25 06:21 26.90553 106.77257 36256 ft 430 kts 348°
2026-04-25 06:21 26.93508 106.77012 35958 ft 424 kts 351°
2026-04-25 06:22 26.96465 106.76874 35662 ft 415 kts 352°
2026-04-25 06:22 26.99320 106.76780 35370 ft 407 kts 352°
2026-04-25 06:22 27.02173 106.76688 35077 ft 403 kts 352°
2026-04-25 06:22 27.04964 106.76586 34792 ft 405 kts 352°
2026-04-25 06:23 27.07847 106.76466 34499 ft 409 kts 352°
2026-04-25 06:23 27.10711 106.76337 34207 ft 408 kts 352°
2026-04-25 06:23 27.13572 106.76202 33913 ft 405 kts 352°
2026-04-25 06:23 27.16402 106.76064 33623 ft 405 kts 352°
2026-04-25 06:24 27.19232 106.75921 33351 ft 407 kts 351°
2026-04-25 06:24 27.22048 106.75777 33084 ft 407 kts 351°
2026-04-25 06:24 27.24893 106.75630 32818 ft 408 kts 352°
2026-04-25 06:24 27.27753 106.75480 32549 ft 408 kts 352°
2026-04-25 06:25 27.30613 106.75330 32284 ft 409 kts 352°
2026-04-25 06:25 27.33457 106.75182 32020 ft 408 kts 352°
2026-04-25 06:25 27.36292 106.75035 31756 ft 408 kts 352°
2026-04-25 06:25 27.39155 106.74921 31491 ft 410 kts 354°
2026-04-25 06:26 27.42037 106.74888 31230 ft 412 kts 355°
2026-04-25 06:26 27.44900 106.74902 30965 ft 411 kts 355°
2026-04-25 06:26 27.47768 106.74929 30709 ft 415 kts 355°
2026-04-25 06:26 27.50694 106.74954 30448 ft 415 kts 355°
2026-04-25 06:27 27.53576 106.74976 30188 ft 412 kts 355°
2026-04-25 06:27 27.56463 106.74993 29924 ft 414 kts 355°
2026-04-25 06:27 27.59337 106.75004 29673 ft 416 kts 355°
2026-04-25 06:27 27.62242 106.75011 29409 ft 413 kts 355°
2026-04-25 06:28 27.65119 106.75017 29149 ft 411 kts 355°
2026-04-25 06:28 27.68064 106.75021 28890 ft 413 kts 356°
2026-04-25 06:28 27.70943 106.75022 28634 ft 415 kts 356°
2026-04-25 06:28 27.73857 106.75024 28379 ft 416 kts 356°
2026-04-25 06:29 27.76753 106.75025 28122 ft 418 kts 356°
2026-04-25 06:29 27.79687 106.75028 27864 ft 417 kts 356°
2026-04-25 06:29 27.82596 106.75030 27607 ft 420 kts 356°
2026-04-25 06:29 27.85546 106.75030 27347 ft 421 kts 356°
2026-04-25 06:30 27.88499 106.75034 27091 ft 419 kts 356°
2026-04-25 06:30 27.91421 106.75037 26834 ft 421 kts 356°
2026-04-25 06:30 27.94356 106.75039 26576 ft 421 kts 356°
2026-04-25 06:30 27.97286 106.75041 26321 ft 421 kts 356°
2026-04-25 06:31 28.00230 106.75043 26063 ft 422 kts 356°
2026-04-25 06:31 28.03207 106.75044 25802 ft 423 kts 356°
2026-04-25 06:31 28.06134 106.75047 25733 ft 421 kts 356°
2026-04-25 06:31 28.09104 106.75050 25685 ft 422 kts 356°
2026-04-25 06:32 28.12024 106.75054 25419 ft 411 kts 356°
2026-04-25 06:32 28.14858 106.75062 25159 ft 399 kts 356°
2026-04-25 06:32 28.17597 106.75069 24904 ft 388 kts 356°
2026-04-25 06:32 28.20297 106.75075 24646 ft 377 kts 356°
2026-04-25 06:33 28.22870 106.75082 24392 ft 366 kts 356°
2026-04-25 06:33 28.25418 106.75088 24134 ft 356 kts 356°
2026-04-25 06:33 28.27878 106.75094 23876 ft 348 kts 356°
2026-04-25 06:33 28.30268 106.75096 23621 ft 343 kts 356°
2026-04-25 06:34 28.32666 106.75037 23369 ft 346 kts 353°
2026-04-25 06:34 28.35081 106.74779 23117 ft 347 kts 350°
2026-04-25 06:34 28.37505 106.74413 22859 ft 345 kts 349°
2026-04-25 06:34 28.39880 106.74023 22612 ft 347 kts 348°
2026-04-25 06:35 28.42293 106.73626 22376 ft 350 kts 349°
2026-04-25 06:35 28.44734 106.73238 22128 ft 350 kts 349°
2026-04-25 06:35 28.47145 106.72866 21888 ft 353 kts 349°
2026-04-25 06:35 28.49618 106.72493 21644 ft 355 kts 350°
2026-04-25 06:36 28.52072 106.72127 21398 ft 356 kts 350°
2026-04-25 06:36 28.54565 106.71757 21145 ft 357 kts 350°
2026-04-25 06:36 28.57046 106.71388 20897 ft 359 kts 350°
2026-04-25 06:36 28.59522 106.71021 20648 ft 361 kts 350°
2026-04-25 06:37 28.62024 106.70650 20396 ft 362 kts 350°
2026-04-25 06:37 28.64545 106.70275 20141 ft 364 kts 350°
2026-04-25 06:37 28.67096 106.69897 19886 ft 364 kts 350°
2026-04-25 06:37 28.69616 106.69523 19632 ft 366 kts 351°
2026-04-25 06:38 28.72139 106.69201 19384 ft 369 kts 353°
2026-04-25 06:38 28.74717 106.69068 19129 ft 369 kts 356°
2026-04-25 06:38 28.77348 106.69055 18885 ft 372 kts 358°
2026-04-25 06:38 28.79925 106.69089 18637 ft 373 kts 359°
2026-04-25 06:39 28.82577 106.69134 18394 ft 376 kts 359°
2026-04-25 06:39 28.85212 106.69167 18151 ft 376 kts 359°
2026-04-25 06:39 28.87829 106.69188 17911 ft 376 kts 358°
2026-04-25 06:39 28.90466 106.69196 17674 ft 379 kts 358°
2026-04-25 06:40 28.93144 106.69198 17427 ft 381 kts 358°
2026-04-25 06:40 28.95789 106.69172 17176 ft 380 kts 356°
2026-04-25 06:40 28.98428 106.68787 16920 ft 379 kts 344°
2026-04-25 06:40 29.00865 106.67605 16667 ft 378 kts 327°
2026-04-25 06:41 29.02878 106.65706 16419 ft 380 kts 314°
2026-04-25 06:41 29.04683 106.63474 16163 ft 380 kts 312°
2026-04-25 06:41 29.06435 106.61204 15914 ft 381 kts 311°
2026-04-25 06:41 29.08190 106.58913 15662 ft 382 kts 311°
2026-04-25 06:42 29.09952 106.56616 15410 ft 384 kts 311°
2026-04-25 06:42 29.11740 106.54296 15146 ft 384 kts 311°
2026-04-25 06:42 29.13519 106.51998 14892 ft 386 kts 311°
2026-04-25 06:42 29.15338 106.49654 14654 ft 388 kts 311°
2026-04-25 06:43 29.17134 106.47343 14419 ft 389 kts 311°
2026-04-25 06:43 29.18940 106.45021 14171 ft 389 kts 311°
2026-04-25 06:43 29.20728 106.42720 13928 ft 390 kts 311°
2026-04-25 06:43 29.22614 106.40424 13693 ft 393 kts 315°
2026-04-25 06:44 29.24780 106.38522 13444 ft 395 kts 329°
2026-04-25 06:44 29.27394 106.37421 13213 ft 397 kts 347°
2026-04-25 06:44 29.30140 106.37232 12976 ft 399 kts
2026-04-25 06:44 29.32886 106.37779 12747 ft 399 kts 13°
2026-04-25 06:45 29.35570 106.38604 12507 ft 397 kts 15°
2026-04-25 06:45 29.38248 106.39515 12260 ft 397 kts 16°
2026-04-25 06:45 29.40908 106.40453 12027 ft 396 kts 17°
2026-04-25 06:45 29.43546 106.41388 11796 ft 394 kts 17°
2026-04-25 06:46 29.46205 106.42325 11738 ft 397 kts 17°
2026-04-25 06:46 29.48861 106.43253 11502 ft 401 kts 17°
2026-04-25 06:46 29.51557 106.44187 11261 ft 398 kts 17°
2026-04-25 06:46 29.54223 106.45106 11023 ft 399 kts 17°
2026-04-25 06:47 29.56885 106.46022 10785 ft 397 kts 17°
2026-04-25 06:47 29.59524 106.46928 10549 ft 394 kts 17°
2026-04-25 06:47 29.62149 106.47829 10310 ft 393 kts 17°
2026-04-25 06:47 29.64778 106.48733 10080 ft 392 kts 17°
2026-04-25 06:48 29.67401 106.49635 9844 ft 389 kts 17°
2026-04-25 06:48 29.69977 106.50522 9574 ft 373 kts 18°
2026-04-25 06:48 29.72369 106.51344 9339 ft 346 kts 18°
2026-04-25 06:48 29.74607 106.52113 9112 ft 324 kts 18°
2026-04-25 06:49 29.76722 106.52843 8878 ft 304 kts 18°
2026-04-25 06:49 29.78727 106.53536 8639 ft 287 kts 18°
2026-04-25 06:49 29.80602 106.54187 8441 ft 280 kts 18°
2026-04-25 06:49 29.82476 106.54839 8195 ft 281 kts 18°
2026-04-25 06:50 29.84368 106.55496 7950 ft 278 kts 18°
2026-04-25 06:50 29.86222 106.56138 7724 ft 277 kts 18°
2026-04-25 06:50 29.88086 106.56783 7487 ft 277 kts 18°
2026-04-25 06:50 29.89926 106.57420 7258 ft 275 kts 18°
2026-04-25 06:51 29.91760 106.58055 7022 ft 274 kts 18°
2026-04-25 06:51 29.93591 106.58689 6853 ft 272 kts 18°
2026-04-25 06:51 29.95420 106.59322 6852 ft 273 kts 18°
2026-04-25 06:51 29.97246 106.59956 6849 ft 274 kts 18°
2026-04-25 06:52 29.99102 106.60600 6853 ft 274 kts 18°
2026-04-25 06:52 30.00943 106.61239 6849 ft 274 kts 18°
2026-04-25 06:52 30.02765 106.61871 6847 ft 269 kts 18°
2026-04-25 06:52 30.04523 106.62479 6848 ft 254 kts 18°
2026-04-25 06:53 30.06182 106.63055 6847 ft 240 kts 18°
2026-04-25 06:53 30.07763 106.63604 6848 ft 230 kts 18°
2026-04-25 06:53 30.09229 106.64304 6847 ft 223 kts 40°
2026-04-25 06:53 30.10082 106.65657 6849 ft 203 kts 75°
2026-04-25 06:54 30.10267 106.67277 6852 ft 200 kts 95°
2026-04-25 06:54 30.10146 106.68919 6849 ft 199 kts 96°
2026-04-25 06:54 30.10048 106.70534 6852 ft 200 kts 95°
2026-04-25 06:54 30.09972 106.72137 6851 ft 199 kts 95°
2026-04-25 06:55 30.09788 106.73717 6848 ft 199 kts 109°
2026-04-25 06:55 30.09048 106.75056 6848 ft 199 kts 141°
2026-04-25 06:55 30.07773 106.75701 6847 ft 201 kts 173°
2026-04-25 06:55 30.06364 106.75680 6853 ft 202 kts 185°
2026-04-25 06:56 30.04980 106.75431 6854 ft 202 kts 190°
2026-04-25 06:56 30.03605 106.75056 6864 ft 202 kts 194°
2026-04-25 06:56 30.02233 106.74613 6865 ft 202 kts 195°
2026-04-25 06:56 30.00885 106.74154 6853 ft 201 kts 195°
2026-04-25 06:57 29.99522 106.73686 6706 ft 204 kts 195°
2026-04-25 06:57 29.98134 106.73206 6344 ft 207 kts 195°
2026-04-25 06:57 29.96756 106.72729 6064 ft 204 kts 195°
2026-04-25 06:57 29.95381 106.72252 5778 ft 203 kts 195°
2026-04-25 06:58 29.94044 106.71790 5505 ft 201 kts 195°
2026-04-25 06:58 29.92688 106.71321 5231 ft 199 kts 195°
2026-04-25 06:58 29.91363 106.70863 4956 ft 198 kts 195°
2026-04-25 06:58 29.90032 106.70403 4685 ft 197 kts 195°
2026-04-25 06:59 29.88708 106.69949 4419 ft 196 kts 195°
2026-04-25 06:59 29.87383 106.69495 4153 ft 193 kts 195°
2026-04-25 06:59 29.86125 106.69058 3895 ft 182 kts 195°
2026-04-25 06:59 29.84933 106.68645 3660 ft 171 kts 195°
2026-04-25 07:00 29.83827 106.68263 3480 ft 160 kts 195°
2026-04-25 07:00 29.82731 106.67886 3271 ft 166 kts 195°
2026-04-25 07:00 29.81650 106.67513 3004 ft 159 kts 195°
2026-04-25 07:00 29.80589 106.67145 2821 ft 160 kts 195°
2026-04-25 07:01 29.79509 106.66773 2601 ft 158 kts 196°
2026-04-25 07:01 29.78460 106.66411 2399 ft 155 kts 196°
2026-04-25 07:01 29.77417 106.66051 2208 ft 154 kts 195°
2026-04-25 07:01 29.76387 106.65702 2005 ft 153 kts 197°
2026-04-25 07:02 29.75358 106.65344 1813 ft 153 kts 200°
2026-04-25 07:02 29.74323 106.64990 1656 ft 154 kts 194°
2026-04-25 07:02 29.73278 106.64625 1447 ft 156 kts 195°
2026-04-25 07:02 29.72222 106.64265 1563 ft 162 kts 196°
2026-04-25 07:03 29.71228 106.63942 2515 ft 141 kts 194°
2026-04-25 07:03 29.70233 106.63598 2915 ft 161 kts 197°
2026-04-25 07:03 29.69119 106.63187 3380 ft 178 kts 196°
2026-04-25 07:03 29.67870 106.62747 3937 ft 195 kts 195°
2026-04-25 07:04 29.66532 106.62286 4563 ft 211 kts 195°
2026-04-25 07:04 29.65056 106.61648 4854 ft 237 kts 207°
2026-04-25 07:04 29.63717 106.60438 4857 ft 254 kts 228°
2026-04-25 07:04 29.62843 106.58987 4863 ft 256 kts 242°
2026-04-25 07:05 29.62497 106.58131 4865 ft 257 kts 248°
2026-04-25 07:05 29.61991 106.56158 4856 ft 258 kts 261°
2026-04-25 07:05 29.62045 106.52423 4852 ft 259 kts 284°
2026-04-25 07:05 29.62885 106.50589 4853 ft 259 kts 313°
2026-04-25 07:06 29.64275 106.49258 4848 ft 259 kts 329°
2026-04-25 07:06 29.65904 106.48355 4846 ft 258 kts 342°
2026-04-25 07:06 29.67634 106.47846 4848 ft 257 kts 351°
2026-04-25 07:06 29.69437 106.47784 4884 ft 254 kts 16°
2026-04-25 07:07 29.71072 106.48528 5145 ft 255 kts 28°
2026-04-25 07:07 29.72651 106.49504 5371 ft 255 kts 33°
2026-04-25 07:07 29.74142 106.50630 5609 ft 256 kts 36°
2026-04-25 07:07 29.75618 106.51804 5845 ft 258 kts 36°
2026-04-25 07:08 29.77105 106.52958 6084 ft 259 kts 35°
2026-04-25 07:08 29.78646 106.54047 6321 ft 261 kts 26°
2026-04-25 07:08 29.80401 106.54752 6573 ft 265 kts 16°
2026-04-25 07:08 29.82549 106.55347 6846 ft 286 kts 14°
2026-04-25 07:09 29.87524 106.56757 6820 ft 276 kts 18°
2026-04-25 07:09 29.89334 106.57400 6842 ft 263 kts 19°
2026-04-25 07:09 29.91068 106.58043 6845 ft 262 kts 19°
2026-04-25 07:09 29.92834 106.58677 6842 ft 263 kts 18°
2026-04-25 07:10 30.03177 106.62261 6843 ft 262 kts 17°
2026-04-25 07:10 30.08901 106.64129 6839 ft 263 kts 20°
2026-04-25 07:10 30.10489 106.65200 6835 ft 261 kts 50°
2026-04-25 07:10 30.11298 106.66956 6843 ft 241 kts 80°
2026-04-25 07:11 30.11364 106.68819 6844 ft 225 kts 100°
2026-04-25 07:11 30.11027 106.70555 6854 ft 221 kts 105°
2026-04-25 07:11 30.10677 106.72251 6858 ft 208 kts 104°
2026-04-25 07:11 30.10348 106.73827 6848 ft 198 kts 109°
2026-04-25 07:12 30.09670 106.75213 6855 ft 198 kts 137°
2026-04-25 07:12 30.07060 106.75911 6861 ft 200 kts 185°
2026-04-25 07:12 30.05667 106.75656 6861 ft 200 kts 190°
2026-04-25 07:13 30.04310 106.75291 6862 ft 200 kts 193°
2026-04-25 07:13 30.02945 106.74854 6864 ft 200 kts 195°
2026-04-25 07:13 30.01597 106.74400 6860 ft 201 kts 195°
2026-04-25 07:13 30.00256 106.73939 6822 ft 202 kts 195°
2026-04-25 07:14 29.98904 106.73473 6563 ft 204 kts 195°
2026-04-25 07:14 29.97524 106.72996 6230 ft 204 kts 195°
2026-04-25 07:14 29.96173 106.72527 5952 ft 202 kts 195°
2026-04-25 07:14 29.94820 106.72058 5673 ft 201 kts 195°
2026-04-25 07:15 29.93480 106.71594 5393 ft 199 kts 195°
2026-04-25 07:15 29.92151 106.71135 5119 ft 197 kts 195°
2026-04-25 07:15 29.90830 106.70679 4851 ft 197 kts 195°
2026-04-25 07:15 29.89507 106.70222 4584 ft 196 kts 195°
2026-04-25 07:16 29.88200 106.69775 4319 ft 195 kts 195°
2026-04-25 07:16 29.86914 106.69333 4056 ft 188 kts 195°
2026-04-25 07:16 29.85694 106.68909 3814 ft 177 kts 195°
2026-04-25 07:16 29.84550 106.68514 3583 ft 167 kts 195°
2026-04-25 07:17 29.83460 106.68137 3468 ft 157 kts 195°
2026-04-25 07:17 29.82391 106.67769 3167 ft 161 kts 195°
2026-04-25 07:17 29.81331 106.67402 2947 ft 155 kts 195°
2026-04-25 07:17 29.80278 106.67039 2762 ft 160 kts 195°
2026-04-25 07:18 29.79210 106.66670 2549 ft 155 kts 196°
2026-04-25 07:18 29.78176 106.66312 2344 ft 155 kts 195°
2026-04-25 07:18 29.77135 106.65955 2142 ft 156 kts 195°
2026-04-25 07:18 29.76111 106.65597 1938 ft 153 kts 195°
2026-04-25 07:19 29.75095 106.65250 1771 ft 155 kts 195°
2026-04-25 07:19 29.74059 106.64898 1541 ft 154 kts 197°
2026-04-25 07:19 29.73018 106.64531 1391 ft 153 kts 197°
2026-04-25 07:19 29.72114 106.64226 1372 ft 102 kts 195°
2026-04-25 07:20 29.71645 106.64064 1372 ft 41 kts 197°
2026-04-25 07:20 29.71436 106.64037 1371 ft 23 kts 173°
2026-04-25 07:20 29.71295 106.64072 1371 ft 18 kts 169°
2026-04-25 07:20 29.71182 106.64093 1371 ft 13 kts 172°
2026-04-25 07:21 29.71117 106.64129 1371 ft 8 kts 120°
2026-04-25 07:21 29.71099 106.64190 1371 ft 8 kts 107°
2026-04-25 07:21 29.71077 106.64271 1371 ft 12 kts 107°
2026-04-25 07:21 29.71048 106.64378 1371 ft 14 kts 107°
2026-04-25 07:22 29.71050 106.64468 1372 ft 10 kts 36°
2026-04-25 07:22 29.71133 106.64500 1372 ft 12 kts 17°
2026-04-25 07:22 29.71230 106.64534 1372 ft 15 kts 17°
2026-04-25 07:22 29.71298 106.64558 1372 ft 7 kts 16°
2026-04-25 07:23 29.71357 106.64578 1372 ft 10 kts 17°
2026-04-25 07:23 29.71439 106.64606 1372 ft 14 kts 17°
2026-04-25 07:23 29.71543 106.64642 1372 ft 16 kts 17°
2026-04-25 07:23 29.71645 106.64677 1372 ft 13 kts 17°
2026-04-25 07:24 29.71694 106.64714 1372 ft 6 kts 73°
2026-04-25 07:24 29.71683 106.64785 1372 ft 9 kts 106°
2026-04-25 07:24 29.71677 106.64840 1372 ft 5 kts 66°
2026-04-25 07:24 29.71702 106.64874 1372 ft 4 kts 59°
2026-04-25 07:25 29.71707 106.64914 1372 ft 4 kts 97°
2026-04-25 07:25 29.71703 106.64947 1372 ft 4 kts 100°
2026-04-25 07:25 29.71700 106.64965 1373 ft 1 kts 101°
2026-04-25 07:25 29.71699 106.64968 1373 ft 0 kts 101°